Regional Weather Roundup
Issued by NWS State College, PA

Home | Current Version | Previous Version | Text Only | Print | Product List | Glossary Off
Versions: 1 2 3 4 5 6 7 8 9 10 11 12 13 14 15 16 17 18 19 20 21 22 23 24 25 26 27 28 29 30 31 32 33 34 35 36 37 38 39 40 41 42 43 44 45 46 47 48 49 50

000
ASUS41 KCTP 021610
RWRCTP

REGIONAL WEATHER ROUNDUP
NATIONAL WEATHER SERVICE STATE COLLEGE PA
1200 PM EDT TUE JUN 02 2015

Note: "fair" indicates few or no clouds below 12,000 feet with no
significant weather and/or obstructions to visibility.

* = STATION THAT DOES NOT REPORT PRECIPITATION /E.G. RAIN...SNOW...ETC/
    THUNDER OR FOG.

PAZ002>004-007>009-013>016-020>023-029>032-021700-
WESTERN PENNSYLVANIA

CITY           SKY/WX    TMP DP  RH WIND       PRES   REMARKS
ERIE           MOSUNNY   58  49  72 NE16      30.20S
MEADVILLE      PTSUNNY   59  49  69 N8        30.17F
FRANKLIN*      CLOUDY    61  50  67 NE8       30.18S
NEW CASTLE     CLOUDY    58  52  80 NE10      30.18S
BEAVER COUNTY  CLOUDY    57  50  77 CALM      30.16S
BUTLER*        CLOUDY    57  50  77 E9        30.17F
PITTSBURGH INT CLOUDY    59  51  75 N7        30.15R
PITTSBURGH     CLOUDY    57  50  77 VRB3      30.14R
INDIANA*       CLOUDY    57  54  88 E6        30.19R
LATROBE          N/A     57  57 100 VRB5      30.16S
WASHINGTON CO* CLOUDY    57  52  82 NE3       30.16S
$$

PAZ004>006-010>012-017>019-024>028-033>037-041-042-045-046-049>053-021700-
CENTRAL PENNSYLVANIA

CITY           SKY/WX    TMP DP  RH WIND       PRES   REMARKS
BRADFORD       PTSUNNY   55  46  71 NE12      30.19R
DUBOIS         CLOUDY    59  50  72 N9        30.16R
CLEARFIELD     CLOUDY    59  51  75 E7        30.16S
JOHNSTOWN      CLOUDY    54  52  93 NE6       30.14R
ALTOONA        LGT RAIN  55  53  93 N9        30.16R
STATE COLLEGE  LGT RAIN  55  54  94 NE8       30.16R
WILLIAMSPORT   LGT RAIN  61  52  72 E7        30.15R
SELINSGROVE    RAIN      57  54  89 E5        30.16R FOG
FT INDIANTOWN  RAIN      54  52  94 E3        30.15S FOG
CAPITAL CITY   LGT RAIN  55  53  93 E6        30.14S FOG
HARRISBURG     LGT RAIN  56  53  90 NE3       30.14S
YORK           LGT RAIN  56  53  90 N8        30.13S
$$

PAZ038>040-043-044-047-048-054-055-060>062-067>071-021700-
EASTERN PENNSYLVANIA

CITY           SKY/WX    TMP DP  RH WIND       PRES   REMARKS
SCRANTON       CLOUDY    56  51  84 CALM      30.16R
MOUNT POCONO   LGT RAIN  50  47  89 E3        30.16S
ALLENTOWN      LGT RAIN  53  51  93 NE8       30.15S
QUAKERTOWN*    CLOUDY    54  52  94 NE7       30.14F
READING        HVY RAIN  52  50  93 NE7       30.14R FOG
LANCASTER      LGT RAIN  54  52  93 NE9       30.13S
COATESVILLE    LGT RAIN  52  52 100 NE3       30.14R
POTTSTOWN      RAIN      53  53 100 N3        30.15R FOG
BLUE BELL      CLOUDY    54  52  94 NE6       30.13S
DOYLESTOWN     CLOUDY    52  52 100 VRB6      30.13S
WILLOW GROVE   NOT AVBL
NORTH PHILA    CLOUDY    56  49  77 NE10      30.14F
PHILADELPHIA   CLOUDY    55  51  86 NE13      30.13R
$$


USA.gov is the U.S. government's official web portal to all federal, state and local government web resources and services.